Wind_Speed
27 28 28 27 26 26 25 22 21 18 15 11 9 7 6 6 6 5 5 7 7 7 9 10 11 11 11 11 11 10 11 12 13 12 12 14 16 16 17 18 18 19 20 21 22 24 25 26 28 29 30 30 31 33 33 35 36 37 38 39 41 41 41 43 45 46 47 47 49 50 51 53 54 54 53 54 57 60 61 60 60 62 64 66 69 71 72 74
26 28 27 26 25 25 24 22 20 17 13 11 9 7 6 7 7 6 7 8 8 9 10 11 11 11 11 10 10 10 11 12 12 11 13 15 15 16 17 17 18 19 19 21 23 24 26 27 29 30 30 31 33 33 34 35 36 37 39 40 42 43 43 44 46 47 48 49 50 51 51 55 57 55 54 54 59 63 65 66 67 67 68 69 71 72 73 73
27 28 27 27 25 24 23 22 18 15 13 11 9 7 7 8 7 8 9 9 9 11 11 11 11 10 10 9 9 9 10 11 11 12 14 14 15 16 17 17 18 19 20 22 24 26 27 28 29 30 31 32 33 34 35 36 36 38 40 40 42 44 45 45 47 48 49 50 52 53 53 56 59 56 54 55 58 62 64 67 70 72 73 74 75 75 74 74
27 29 28 27 25 24 23 21 17 14 13 11 9 8 8 8 9 10 9 10 11 12 11 11 10 10 9 9 8 9 9 10 11 12 14 14 15 16 17 17 18 19 21 24 26 27 27 28 29 30 31 31 32 34 35 36 36 37 39 41 42 44 46 47 48 49 50 52 53 55 56 57 60 58 57 58 59 61 62 65 68 72 74 76 77 77 75 74
26 29 29 27 25 24 23 20 16 15 13 11 10 9 9 11 11 11 10 11 12 12 11 10 10 9 9 8 8 9 9 10 11 13 14 14 15 16 16 17 18 21 23 25 26 26 27 28 29 29 31 32 33 34 36 37 37 38 39 41 43 44 47 48 49 49 50 53 54 56 58 58 61 61 60 62 61 61 62 64 68 71 75 77 79 78 75 72
25 28 29 28 26 24 23 20 17 15 12 11 10 11 11 12 12 11 12 13 13 12 11 10 10 9 9 8 9 9 9 10 12 12 13 14 15 15 15 17 19 22 23 24 24 25 26 28 28 29 31 32 34 35 36 37 38 39 40 41 43 44 47 48 49 50 50 52 54 57 59 58 61 63 63 63 62 62 63 65 69 72 76 78 79 78 74 70
24 26 28 27 26 24 22 20 18 15 13 12 12 12 13 13 12 13 14 14 13 11 11 10 10 9 8 8 9 10 9 10 12 12 13 13 14 15 16 18 20 21 22 23 24 26 27 28 29 30 31 32 34 35 36 37 38 39 40 40 42 44 47 48 50 51 51 52 55 58 60 57 59 64 64 63 62 62 64 66 70 72 75 77 79 77 73 69
24 24 25 25 25 23 21 19 18 16 14 14 14 14 14 13 13 15 15 14 12 11 11 10 9 8 7 7 9 9 9 10 12 12 12 13 14 15 16 18 19 20 21 23 25 26 26 27 28 29 31 32 34 35 36 37 38 39 41 41 42 44 47 48 50 52 52 54 56 58 60 58 60 64 63 63 63 62 64 66 69 72 75 76 77 76 71 67
23 23 24 24 24 23 20 19 17 16 16 16 16 16 14 14 15 15 14 13 12 11 11 10 8 8 7 8 9 8 8 10 11 11 11 13 14 15 16 18 18 19 21 23 24 25 26 27 28 29 31 32 34 35 36 37 38 40 42 42 43 45 47 49 50 52 54 55 57 59 60 59 61 64 64 64 63 63 64 66 69 71 74 75 76 74 70 65
24 24 25 24 23 22 20 19 18 18 18 17 17 16 15 15 16 15 14 12 11 11 10 9 8 7 8 8 8 8 8 9 10 10 12 13 14 16 16 17 18 20 22 23 25 26 26 27 28 29 30 32 33 35 36 37 39 41 42 43 44 44 47 49 49 52 54 56 57 59 60 60 62 64 64 65 64 64 65 66 68 71 73 74 74 74 70 65
26 26 25 23 20 19 19 21 21 20 19 18 17 16 16 17 16 15 13 12 11 10 9 8 8 6 8 9 8 7 8 9 10 11 12 13 15 15 16 17 19 21 23 24 25 26 26 27 28 29 30 31 32 34 35 37 39 41 42 43 45 46 47 49 50 51 53 56 57 59 60 60 62 64 64 65 65 65 65 66 68 70 72 73 73 73 71 67
28 26 24 22 20 20 21 22 22 21 20 19 17 17 18 17 16 14 12 11 11 9 8 8 7 6 8 9 7 7 9 10 11 12 13 14 15 15 16 18 20 22 24 24 25 25 26 27 28 29 29 30 32 34 36 38 39 40 42 44 46 48 48 50 51 51 52 55 57 58 60 60 61 63 64 64 65 65 66 67 69 71 73 73 73 71 70 68
30 25 23 24 24 24 24 24 22 21 20 18 18 19 18 17 16 14 12 11 10 9 8 7 6 7 9 8 7 8 10 10 11 12 13 13 14 15 17 19 21 23 23 24 25 25 26 27 28 28 29 31 33 35 36 37 38 40 42 43 45 48 50 50 51 51 52 56 57 57 59 59 60 62 63 65 65 66 67 69 72 73 75 75 75 72 69 67
28 25 26 28 28 26 25 24 23 21 19 19 20 19 18 17 15 13 12 11 9 8 8 7 7 8 8 7 8 10 10 11 12 12 13 13 15 16 18 20 22 23 23 24 25 25 26 27 28 29 30 32 34 34 35 35 37 40 41 43 45 48 50 50 50 51 53 55 56 58 58 59 60 61 63 65 65 67 69 72 74 76 78 79 79 76 72 67
26 26 28 28 28 27 26 25 24 22 21 20 20 19 17 16 14 13 11 10 9 8 8 8 8 9 8 8 9 10 10 11 11 12 12 14 15 17 18 20 22 23 23 24 25 25 26 27 28 30 31 33 34 34 34 35 38 39 41 43 46 48 49 49 50 51 53 55 56 58 58 59 61 62 64 66 67 69 71 73 75 78 80 82 82 81 77 72
27 27 28 27 27 27 27 25 24 23 22 21 19 18 17 15 13 12 10 9 9 9 9 8 9 10 9 9 10 10 10 11 11 11 12 15 16 17 19 20 22 22 23 24 25 25 26 26 27 29 31 33 34 35 35 36 37 39 41 43 45 47 49 50 50 51 53 55 55 57 59 60 62 64 65 67 69 70 72 73 76 79 81 82 83 83 80 76
29 27 27 27 28 27 26 25 24 24 23 21 20 18 16 14 13 11 10 10 9 9 9 9 10 10 9 9 10 10 10 10 11 12 13 15 16 18 19 21 21 22 23 24 25 25 26 26 27 29 31 31 31 33 35 36 37 39 41 42 44 48 50 50 51 51 53 55 55 58 60 60 62 65 66 68 70 71 72 73 76 79 81 82 82 83 81 78
30 27 28 28 28 27 26 26 25 24 23 21 19 17 15 14 13 12 11 10 10 10 10 10 10 10 9 9 9 9 10 10 12 13 14 15 17 18 19 21 22 23 24 25 26 26 28 29 29 30 29 28 29 32 35 37 38 40 42 43 44 47 50 50 51 53 54 56 58 59 61 61 64 67 67 68 70 70 72 74 76 79 81 82 82 82 81 79
30 29 28 28 27 26 26 26 25 24 23 21 18 16 15 14 13 12 11 11 11 11 12 11 10 9 9 9 9 9 10 11 13 14 14 15 17 19 20 21 23 24 25 26 27 28 29 29 29 29 28 29 31 33 36 38 39 40 42 45 46 47 49 50 51 53 55 57 59 60 61 63 65 67 68 69 70 70 72 73 75 78 80 82 82 82 81 79
31 31 29 27 27 26 26 25 25 24 22 20 18 16 15 14 13 12 12 12 12 13 12 10 9 8 8 8 9 9 10 12 13 13 14 16 18 20 21 23 24 25 26 28 28 28 29 29 28 28 29 32 34 35 36 37 38 40 42 45 46 46 48 51 51 52 55 57 57 59 62 63 65 67 68 69 70 70 72 73 74 77 79 81 82 81 80 77
32 31 29 28 28 27 26 26 25 23 20 18 17 17 16 14 13 12 13 13 13 13 12 9 8 7 8 9 9 10 11 12 11 12 15 18 19 21 22 24 25 26 26 27 28 28 28 29 28 29 31 33 34 35 35 37 38 40 42 43 45 47 48 50 51 53 55 55 55 59 63 63 65 68 68 69 70 71 71 72 74 75 78 80 80 80 80 79
31 30 29 29 28 27 26 25 23 21 19 18 18 17 16 14 13 12 13 14 14 13 10 8 7 7 8 9 10 11 11 10 11 14 17 19 20 21 23 24 26 26 27 28 28 28 29 29 30 31 32 33 33 34 35 36 38 40 41 43 45 48 49 50 51 52 53 54 56 60 63 65 67 68 69 69 70 70 71 72 73 74 76 77 79 80 82 81
29 29 29 28 27 26 26 24 21 19 18 18 18 17 16 15 14 13 13 14 14 11 9 7 6 7 8 9 10 10 11 12 14 16 18 18 20 22 23 24 25 27 28 30 31 31 32 32 32 32 33 34 34 34 35 35 37 39 42 44 46 48 50 51 51 52 53 55 58 61 63 66 68 68 69 70 69 70 70 70 71 72 74 75 78 81 82 82
28 28 28 28 27 26 24 22 19 19 18 18 17 17 16 15 15 14 13 14 13 10 7 6 6 6 7 9 10 11 12 14 15 16 17 18 20 22 23 24 25 27 28 30 31 32 32 33 33 34 34 34 35 35 35 35 37 39 42 45 47 48 50 51 52 52 54 57 60 62 64 67 68 68 69 69 69 69 69 69 70 71 72 75 79 82 82 82
28 28 27 27 26 24 22 20 18 18 18 18 17 17 16 15 15 15 14 13 10 8 6 5 5 6 8 9 10 12 13 14 14 15 17 19 20 22 24 25 26 28 29 30 31 32 33 34 34 34 35 36 36 36 36 36 37 40 43 46 48 48 49 50 52 54 56 58 60 63 65 67 67 68 69 69 70 70 69 69 69 70 73 76 79 81 82 82
27 27 27 25 24 22 20 19 18 18 18 18 17 16 15 15 15 15 14 11 8 6 4 4 5 6 8 10 11 12 12 13 14 16 18 20 21 23 25 26 28 29 31 32 33 33 34 35 35 35 36 36 37 37 37 37 37 39 43 46 47 47 48 49 52 55 58 58 60 63 65 65 66 68 68 69 70 69 69 69 70 72 74 76 78 80 81 81
26 26 26 23 21 20 19 19 18 17 17 18 17 16 15 15 15 15 12 9 7 5 3 3 5 7 9 10 11 12 12 13 15 17 19 21 22 24 26 27 29 31 32 33 34 34 35 35 36 35 36 37 38 38 39 38 38 39 42 44 46 47 48 49 51 55 58 59 60 63 63 63 64 66 67 68 69 69 69 70 71 73 74 74 75 77 79 80
26 26 24 21 20 18 18 18 17 17 17 17 16 15 15 15 16 14 11 8 5 4 3 3 5 7 9 10 11 12 13 14 16 18 20 22 24 26 27 29 31 32 33 34 34 35 35 36 36 36 36 37 38 39 40 40 39 39 42 44 46 47 49 50 51 54 57 60 60 61 62 61 62 65 67 68 68 69 69 71 71 72 72 73 74 74 76 79
25 24 22 20 19 18 18 18 17 17 17 16 15 15 16 16 15 13 10 7 4 2 1 3 6 8 10 11 11 12 14 15 18 20 21 23 25 27 28 30 32 33 33 34 33 34 35 36 37 37 37 37 38 40 41 40 40 40 42 44 46 48 50 51 52 54 57 60 61 60 60 61 63 65 67 67 67 67 69 69 69 70 70 71 73 73 74 78
24 23 20 19 18 17 18 18 17 17 16 16 15 16 16 15 14 11 9 6 3 0 1 3 6 8 10 11 11 13 15 17 20 22 24 26 27 28 30 31 31 31 31 32 33 35 35 36 37 38 39 39 40 40 41 41 41 41 43 44 46 49 51 52 53 54 55 57 58 58 58 61 63 66 66 66 65 65 66 67 67 68 68 69 71 73 75 77
23 21 19 18 17 17 18 17 17 16 16 15 15 15 15 14 12 10 8 5 3 1 2 4 7 9 10 11 12 14 17 19 22 24 25 27 28 29 31 31 32 32 32 33 35 36 36 37 37 38 39 40 41 41 42 43 43 43 45 46 48 50 52 53 54 54 54 54 56 58 58 60 63 64 65 65 65 65 66 67 67 67 68 68 69 71 74 75
22 19 18 17 17 17 17 16 16 16 16 15 15 15 14 12 11 9 6 4 3 2 3 5 7 9 10 12 13 15 18 20 22 24 26 27 28 29 30 32 34 35 36 37 37 37 37 38 39 39 40 42 42 43 44 44 44 45 45 46 49 52 54 55 55 54 53 53 55 57 59 60 61 62 64 65 65 66 67 67 68 68 68 68 70 71 72 73
20 18 17 17 17 18 17 16 16 16 15 15 15 14 13 11 9 8 6 5 4 3 4 5 7 9 10 12 14 16 18 20 23 25 26 28 29 31 32 34 36 37 38 39 39 39 39 39 41 41 42 44 45 45 46 46 46 46 47 48 51 54 56 58 57 55 53 52 54 57 59 60 60 60 63 64 66 67 66 67 68 69 69 70 70 71 72 73
18 17 17 17 17 17 16 16 15 15 15 15 14 13 12 10 8 7 6 5 5 5 5 6 7 9 11 13 14 16 18 21 23 25 27 28 30 32 34 35 37 38 39 40 40 41 41 41 42 43 44 45 46 47 48 48 48 48 48 49 51 54 57 58 58 57 56 54 54 57 59 60 60 61 62 64 66 66 66 68 70 70 70 70 71 71 72 72
17 17 17 17 17 16 15 15 15 15 15 14 13 12 10 9 8 7 6 6 6 6 6 7 8 10 11 13 15 17 19 21 23 25 28 29 31 33 34 36 37 38 40 40 41 42 42 42 43 43 44 45 45 46 48 49 49 49 49 49 50 52 55 57 57 58 59 57 56 58 60 61 61 61 62 64 65 65 67 69 70 70 70 70 70 70 71 72
17 17 16 16 16 15 15 15 14 14 14 13 12 10 9 8 7 7 7 7 7 7 8 8 9 11 12 14 16 18 20 22 24 26 28 30 32 33 35 37 38 39 40 41 42 42 43 43 43 43 44 44 45 45 47 49 49 49 49 50 50 51 54 57 58 59 59 58 57 57 60 61 61 61 62 64 65 65 67 69 69 69 69 69 69 70 70 72
17 16 16 16 15 14 14 14 14 13 13 12 10 9 8 7 7 7 7 7 8 8 9 10 11 12 13 15 17 19 21 23 24 26 28 30 32 34 36 37 38 40 41 42 43 44 44 44 44 43 43 44 45 45 46 47 48 50 51 51 51 50 52 56 59 59 59 59 57 56 59 62 62 62 63 63 64 65 67 68 68 67 68 69 69 69 70 71
16 16 15 15 14 14 13 13 12 12 11 10 9 8 7 7 7 7 8 8 9 9 10 11 12 13 14 16 18 20 21 23 25 27 29 31 33 34 36 37 39 40 42 43 44 45 45 45 45 45 45 44 45 46 46 46 48 50 51 51 50 51 52 55 58 60 60 60 59 57 57 62 63 62 63 62 63 65 66 67 67 67 67 69 69 69 69 70
16 15 14 13 13 13 12 12 11 11 10 9 8 7 7 8 8 8 9 9 10 10 11 12 13 14 16 17 19 21 22 25 27 29 31 32 33 35 36 38 39 41 42 44 45 46 46 46 46 47 47 46 45 46 46 47 47 49 51 51 51 51 52 54 55 58 60 60 61 60 57 60 63 63 63 63 63 65 65 65 66 67 68 69 69 69 69 69
15 14 13 12 12 12 11 11 10 9 9 8 8 8 8 8 9 9 10 11 12 12 12 13 14 15 17 18 20 22 24 26 28 30 32 33 34 35 37 38 39 41 43 44 46 46 47 47 47 47 47 47 47 46 46 47 47 49 51 52 51 50 51 53 54 56 58 59 61 61 59 59 62 63 63 64 64 64 65 65 66 67 68 69 69 68 68 68
14 13 12 11 11 11 10 10 9 8 8 7 7 7 7 7 8 10 11 12 13 13 14 15 15 17 18 19 21 23 25 27 29 30 32 34 35 36 37 38 39 41 43 44 46 47 47 48 47 47 47 48 48 47 46 46 46 48 51 52 52 51 51 54 55 55 56 58 60 62 61 60 63 64 63 64 63 63 64 65 65 67 67 68 69 68 68 68
13 12 11 10 10 10 10 9 8 7 7 6 6 6 7 9 10 11 12 13 14 15 16 16 17 18 19 21 22 24 25 27 29 31 32 34 35 36 37 38 40 41 43 44 46 47 48 48 49 48 48 48 48 48 47 48 48 48 50 51 51 51 52 53 55 54 54 56 59 61 61 60 63 64 63 63 63 63 64 64 65 66 67 67 68 68 68 67
12 11 10 10 9 9 9 8 7 7 7 7 7 9 11 12 13 14 15 15 16 17 17 18 19 19 20 22 23 24 26 28 29 31 32 33 35 36 37 38 39 41 42 44 45 47 48 49 50 50 49 49 49 50 49 49 50 49 49 49 49 50 51 52 54 55 54 54 57 61 61 59 61 63 63 63 63 62 63 64 65 66 66 66 66 67 68 67
11 10 9 9 9 8 8 8 8 8 8 10 11 13 14 15 16 17 17 18 18 19 19 20 20 21 21 22 24 25 27 28 30 31 32 33 34 35 36 37 39 40 42 43 45 47 48 49 51 52 52 52 52 52 52 51 50 50 49 48 47 48 50 52 54 55 55 55 56 60 62 59 59 62 62 62 62 61 62 63 64 65 66 65 66 67 68 68
10 9 8 8 8 8 8 9 9 10 11 13 14 15 16 17 17 18 18 19 19 20 20 21 22 22 23 23 25 26 28 29 30 31 32 33 34 35 36 37 39 40 41 43 44 46 47 48 50 52 53 53 52 53 52 51 50 50 49 47 46 47 49 52 54 56 56 56 54 58 62 61 59 60 61 61 62 61 61 63 64 64 65 65 65 66 67 68
9 8 8 8 8 9 9 10 11 12 13 14 15 16 17 17 18 18 19 19 20 21 21 22 23 23 24 25 26 27 28 29 30 31 32 33 34 35 36 37 39 40 41 43 44 45 46 46 46 48 50 50 49 50 50 50 49 49 48 46 45 46 49 51 54 56 56 56 55 56 62 63 61 61 61 61 62 62 62 62 63 63 64 64 65 66 67 67
8 8 8 9 9 10 11 11 12 13 14 15 15 16 17 17 18 18 18 19 20 21 22 23 24 24 25 26 27 28 29 30 31 32 32 33 34 35 36 38 39 40 42 43 44 45 45 46 44 45 47 48 47 47 48 48 48 48 46 44 44 45 48 50 53 55 55 56 57 57 60 63 63 62 62 62 63 63 63 62 62 62 63 64 65 65 66 67
8 8 8 9 10 10 11 12 12 13 14 14 15 15 16 17 18 18 18 19 20 21 22 23 24 25 25 26 27 28 29 30 31 32 33 34 35 36 37 38 39 41 42 43 45 45 46 46 46 43 44 47 47 46 46 46 46 46 45 44 44 45 47 50 52 54 54 56 58 58 59 61 63 63 63 63 64 64 64 63 63 63 64 65 65 65 66 67
8 8 9 10 11 11 11 12 12 13 13 14 15 15 15 16 17 17 18 19 20 21 22 23 24 25 26 27 27 28 29 30 31 32 33 34 35 36 37 39 40 41 43 43 45 46 46 47 48 45 43 45 45 44 44 44 44 45 45 45 45 45 47 50 52 53 54 55 58 59 59 61 63 64 64 64 65 65 65 64 65 65 65 66 65 65 65 66
9 9 10 10 11 11 12 12 12 13 13 14 15 15 15 15 16 16 17 18 20 21 22 23 24 25 26 27 28 29 30 31 32 33 34 35 36 37 38 39 40 41 43 43 44 46 47 47 49 48 45 45 45 45 45 46 46 46 46 45 46 46 47 50 52 53 54 56 58 59 60 61 62 64 65 65 65 65 66 66 67 67 66 66 66 65 65 65
9 10 10 11 12 12 13 13 13 13 13 14 14 14 15 15 15 16 17 18 19 20 21 23 24 25 26 27 28 29 30 31 32 33 35 36 37 38 39 40 41 41 42 44 44 46 48 48 49 49 47 46 47 47 47 48 47 46 46 46 46 47 47 49 52 53 55 57 58 59 61 61 62 64 65 66 66 66 67 67 68 68 68 68 67 65 65 65
9 10 10 12 13 13 14 14 14 14 14 14 15 15 15 15 16 16 17 18 19 21 21 22 24 25 26 27 28 29 30 31 33 34 35 36 37 39 40 40 41 42 42 43 44 45 47 48 49 50 50 48 48 48 47 46 46 46 46 46 47 47 47 48 52 54 55 57 58 59 60 62 63 64 65 65 66 67 67 68 69 69 69 68 67 66 66 66
Wind_Direction
189 190 193 196 198 199 197 195 194 189 184 187 183 178 171 155 153 150 137 126 122 119 118 117 111 102 94 90 88 83 75 72 69 64 57 51 49 48 44 40 35 32 31 28 26 23 17 14 12 11 10 7 5 5 3 1 360 358 357 355 355 354 352 349 348 347 347 345 343 341 339 338 339 338 337 332 329 329 329 328 326 326 323 318 312 307 303 299
188 188 189 190 196 199 197 195 194 185 183 191 186 177 158 145 143 139 132 129 126 123 121 115 106 99 96 94 89 81 76 74 70 61 54 52 51 47 43 38 34 33 30 26 22 17 12 10 9 8 6 4 3 2 1 -0 358 356 356 355 354 352 351 349 348 348 347 345 343 342 341 341 341 341 340 334 331 332 332 330 330 329 325 319 313 308 303 300
188 188 188 189 194 195 194 194 191 183 184 190 181 168 155 144 142 142 136 132 130 126 123 114 104 100 100 97 90 86 81 76 68 57 54 53 49 44 39 35 34 31 25 20 15 11 8 8 6 4 3 1 -0 359 358 358 356 355 354 354 352 351 351 349 348 348 347 345 344 343 343 344 344 343 341 337 334 334 333 332 331 330 326 321 315 310 306 303
190 188 189 192 192 190 192 191 185 183 185 184 174 162 153 146 147 146 138 133 131 127 121 114 111 110 108 104 100 94 84 75 64 56 55 52 46 41 37 34 31 26 19 15 11 9 7 6 4 3 1 360 358 357 357 356 355 353 353 352 351 350 350 349 348 349 348 345 346 345 346 347 345 345 343 339 337 335 334 333 331 329 327 323 318 313 309 306
193 189 189 191 192 191 192 188 183 184 182 180 170 156 151 151 149 143 137 134 131 125 120 118 120 120 115 110 104 92 79 70 62 57 55 50 45 40 36 32 26 20 15 12 10 8 6 5 3 2 0 359 359 357 356 356 355 353 352 352 351 350 349 349 348 349 348 346 347 346 348 350 346 346 345 342 340 337 336 334 332 330 327 324 320 316 312 308
195 191 189 189 191 193 192 187 185 183 180 178 164 153 154 152 148 143 138 136 132 127 124 128 129 121 114 110 101 86 71 64 62 60 55 49 44 40 33 27 22 16 13 10 8 6 5 3 2 2 1 360 359 358 357 356 355 353 352 351 350 349 348 348 347 349 349 348 349 348 351 352 347 347 347 344 342 339 338 336 334 332 329 326 322 318 316 312
195 192 188 187 189 192 193 190 184 181 179 170 157 154 156 152 148 143 139 137 135 132 135 137 131 119 114 111 96 79 66 62 63 60 54 49 43 36 29 24 18 14 11 8 6 4 3 2 1 1 1 360 359 358 357 356 355 353 352 351 350 349 348 348 347 348 349 350 350 349 352 354 349 349 348 346 344 342 341 339 336 333 330 327 324 322 319 316
193 190 188 186 186 189 191 188 182 182 174 158 154 156 156 152 147 142 139 138 137 139 143 139 130 122 122 109 86 72 65 65 63 59 53 47 40 33 26 20 16 13 10 7 5 3 2 1 0 0 360 0 359 357 357 357 355 353 353 351 350 349 348 348 349 348 349 351 351 350 353 354 350 350 349 348 347 345 343 341 338 335 332 330 327 325 323 319
189 187 184 183 186 186 183 183 183 176 162 152 155 158 155 151 146 141 139 138 141 146 144 136 130 128 120 97 77 69 67 66 64 60 51 45 38 30 23 18 14 11 8 5 4 2 360 359 359 359 360 360 358 357 357 357 356 354 353 351 350 350 348 349 351 349 349 351 351 350 352 353 350 351 351 350 349 348 346 343 341 338 335 333 331 328 326 323
183 182 179 182 187 184 179 181 176 160 152 154 157 156 153 150 145 143 141 141 147 145 140 135 131 127 111 87 71 69 69 68 66 58 48 40 32 25 21 16 11 7 4 3 2 359 358 358 358 359 360 359 357 357 357 356 356 355 353 351 350 350 349 350 351 349 348 350 350 350 353 353 351 352 352 352 352 350 349 346 344 342 340 338 335 332 330 328
179 178 180 185 184 181 180 173 158 149 152 157 157 154 151 148 146 144 144 148 149 142 137 132 127 124 105 84 69 72 74 71 63 53 42 33 25 22 18 12 8 4 2 1 359 358 358 357 357 358 359 357 357 357 356 357 357 355 353 352 350 350 350 350 351 351 349 350 351 350 352 353 351 352 353 353 353 352 351 349 347 346 344 342 340 337 335 332
177 181 185 186 179 175 169 154 145 149 155 156 155 153 150 147 146 147 150 154 150 140 135 132 133 124 96 83 77 78 77 69 57 47 35 27 23 19 13 8 5 3 1 359 358 358 357 356 356 358 357 356 357 358 357 357 356 354 354 353 350 348 349 351 352 352 349 350 351 350 352 352 352 353 353 353 354 354 354 352 351 350 348 347 345 343 339 336
176 181 184 180 171 161 149 141 145 152 155 156 155 152 148 147 149 152 157 156 147 139 137 137 130 105 86 85 90 83 73 62 51 40 31 25 19 13 9 6 4 2 0 359 359 359 357 356 356 356 356 357 359 358 357 356 355 355 354 352 350 348 350 352 353 352 350 350 351 351 352 352 352 352 352 353 354 355 356 356 354 352 351 350 349 347 344 340
175 176 173 166 156 147 142 144 150 153 155 155 153 150 148 150 154 158 158 152 144 141 137 125 106 93 94 100 91 79 67 56 46 37 30 21 14 9 6 5 4 1 0 1 0 359 358 357 357 356 356 358 359 357 355 355 355 355 353 352 351 350 351 352 353 352 351 351 352 352 352 352 352 351 351 353 355 356 358 358 356 354 353 352 350 348 346 343
172 167 158 148 143 144 148 150 152 154 156 155 151 151 153 156 160 158 151 145 143 138 125 113 104 100 106 101 86 75 62 51 42 35 26 17 11 7 6 5 4 2 2 1 360 359 359 358 357 356 357 358 357 354 353 354 355 354 353 353 351 350 351 352 353 354 352 351 352 352 352 352 351 351 352 354 356 358 359 358 357 355 354 352 350 349 347 345
162 153 145 141 145 149 151 152 153 154 155 154 153 155 159 160 158 152 147 145 142 128 116 114 110 105 104 96 82 68 56 47 38 29 20 15 11 7 6 5 4 3 1 359 359 359 359 359 357 357 359 357 353 351 351 353 353 353 354 354 351 350 351 352 353 354 353 352 352 353 354 352 351 352 354 355 357 359 359 359 358 357 355 353 351 349 348 346
150 145 144 147 150 151 151 153 153 154 154 156 157 158 159 156 152 148 145 142 135 122 114 113 112 111 107 89 73 61 52 42 31 25 19 15 11 7 6 5 3 -0 358 358 357 357 358 358 357 359 360 355 350 349 350 351 352 353 354 354 352 350 351 353 353 354 354 352 353 354 355 353 352 354 355 356 357 359 359 359 359 357 356 354 352 350 349 347
144 146 150 151 152 153 153 153 153 154 156 157 157 157 154 151 147 144 139 134 128 121 116 116 116 112 97 77 66 55 44 34 27 23 19 15 11 7 4 2 359 357 356 357 357 358 358 357 357 358 355 350 348 349 350 350 351 353 353 352 353 352 350 352 353 354 354 353 354 355 354 353 354 356 356 357 358 358 359 360 359 358 356 355 353 351 350 348
144 149 151 152 154 155 153 153 155 157 158 157 155 153 150 146 142 137 132 128 126 123 122 121 116 102 85 72 60 47 36 31 26 20 15 12 8 5 1 358 357 355 356 357 358 359 357 356 356 352 347 347 349 350 350 350 351 352 352 351 352 352 350 351 354 354 354 355 354 353 354 356 356 356 357 358 358 358 359 0 359 358 357 355 354 352 350 349
149 151 153 155 156 155 154 155 158 158 157 155 152 149 145 141 136 131 129 129 128 127 125 121 109 94 79 65 54 42 33 29 23 15 11 9 6 3 -0 357 356 357 358 357 358 357 355 354 352 347 347 351 352 351 351 350 350 352 352 351 350 350 350 351 353 354 354 355 354 352 355 357 357 357 358 358 358 359 360 0 360 358 357 356 355 353 352 350
153 153 155 157 156 155 156 158 159 157 154 153 151 146 139 135 132 131 132 133 131 128 125 117 103 86 70 56 47 36 29 25 16 11 10 8 5 3 0 358 357 357 357 357 356 355 354 352 348 347 351 353 352 351 349 349 349 350 351 350 347 348 350 351 352 353 354 354 353 353 355 358 358 358 359 358 358 359 360 0 360 358 358 357 356 354 353 353
155 155 157 157 156 157 158 160 159 154 152 152 150 144 137 133 133 135 138 138 135 131 126 116 97 78 62 49 40 31 25 21 13 11 10 6 5 3 1 359 357 356 355 356 356 354 353 351 349 350 353 353 351 349 349 349 348 348 349 348 347 347 349 351 351 352 354 353 353 355 356 358 360 359 359 359 359 360 360 360 359 358 358 357 356 355 355 355
156 156 157 156 156 158 159 160 158 153 152 151 148 143 137 135 136 140 147 145 139 134 126 112 87 67 53 41 33 25 23 21 14 10 8 5 4 2 0 359 356 356 356 356 355 354 353 350 350 352 352 351 350 349 350 348 347 347 347 347 348 348 348 349 350 351 352 352 353 356 356 358 1 360 358 359 359 360 0 360 359 359 358 357 357 357 357 356
157 156 156 156 158 159 159 161 158 154 153 150 148 143 138 140 142 148 155 149 141 134 123 99 72 52 43 33 24 23 24 20 12 8 6 4 3 0 358 357 357 357 357 356 355 354 351 351 351 351 350 349 349 350 349 347 347 347 346 347 349 349 348 348 348 349 351 352 353 355 357 359 1 360 358 358 359 359 360 359 359 359 358 359 359 358 357 356
156 156 156 157 158 159 160 159 156 155 154 151 150 145 142 145 149 155 160 153 142 132 114 87 62 38 31 25 21 25 22 14 10 6 3 2 0 358 357 356 357 358 357 356 355 353 351 352 352 350 349 348 349 349 348 348 348 347 347 349 348 348 349 348 347 347 349 353 354 355 358 359 360 360 359 358 359 359 359 359 359 359 360 360 359 358 358 357
156 155 156 158 158 159 161 158 155 157 157 153 151 148 146 151 156 162 163 156 145 131 105 70 49 29 22 20 21 24 17 10 8 3 1 1 358 357 356 355 357 358 357 355 354 353 352 352 350 349 349 348 348 348 347 349 350 349 349 348 347 347 349 349 348 347 349 353 355 356 359 359 359 359 359 358 358 359 359 359 359 360 0 0 359 358 358 357
155 155 157 158 158 161 161 157 156 160 158 154 151 151 153 158 163 166 166 160 149 132 102 60 37 23 17 18 19 17 11 9 5 0 359 358 356 357 356 355 357 357 355 354 353 352 351 351 349 348 349 348 347 347 348 349 350 350 349 348 347 348 349 350 349 348 349 352 356 357 359 359 358 358 358 358 358 358 357 358 360 360 359 359 359 358 357 357
156 157 157 157 159 161 161 158 159 161 158 154 153 156 161 165 167 169 168 162 150 127 89 48 24 17 16 16 14 10 6 5 2 0 358 356 356 356 355 357 357 355 354 353 351 350 350 349 348 348 349 348 347 348 349 349 349 350 350 349 348 349 349 349 350 351 350 351 357 359 358 358 357 357 358 358 358 357 357 358 358 359 358 358 359 359 358 358
158 158 157 157 159 160 160 161 161 161 158 156 158 162 166 169 171 171 169 168 161 131 53 21 13 12 12 10 9 6 3 0 359 358 356 355 356 354 355 358 356 354 353 350 348 349 350 348 347 348 347 347 348 349 349 348 348 349 349 350 350 349 349 349 351 354 353 352 356 358 357 357 358 358 359 358 357 356 357 357 357 357 358 357 357 358 358 359
159 159 158 158 159 160 162 163 163 163 161 162 164 166 170 173 176 176 175 182 190 169 7 7 9 9 7 4 3 1 360 358 357 356 354 355 354 353 355 355 353 352 352 349 350 351 350 348 348 347 346 346 349 350 349 348 348 348 349 350 349 348 349 351 353 356 356 353 354 357 358 358 358 359 359 357 356 356 356 357 357 357 357 357 357 358 359 360
160 160 159 158 160 163 165 166 166 166 166 167 169 171 175 177 180 181 181 194 218 271 332 351 0 3 1 358 357 357 357 356 354 354 354 353 352 352 353 351 349 350 350 352 353 352 349 348 349 347 346 347 348 348 349 349 348 349 350 349 348 348 350 352 354 357 358 354 353 356 359 359 359 359 358 357 356 356 356 356 357 357 357 357 358 358 359 359
161 161 160 160 163 166 168 169 169 171 172 174 175 177 180 182 184 186 192 215 242 272 315 340 350 354 354 354 355 355 354 353 351 352 352 350 349 349 349 348 349 350 351 353 353 351 350 349 348 348 347 346 346 347 348 349 349 349 348 346 347 349 350 352 354 356 358 356 353 355 359 1 0 358 357 357 357 357 357 356 356 356 357 358 358 359 359 359
162 162 162 164 167 169 170 172 173 176 179 180 181 184 186 188 191 198 214 238 252 273 305 326 337 344 347 350 353 351 349 348 348 349 349 348 347 347 347 348 350 351 352 352 351 351 351 350 348 348 348 347 346 346 347 348 349 348 346 346 348 350 351 352 352 353 357 357 354 354 358 1 1 358 358 357 357 357 356 355 356 356 357 357 358 358 359 359
164 165 166 168 170 172 173 176 178 181 184 185 186 189 191 194 203 215 229 245 257 277 298 312 326 336 343 346 347 346 345 345 345 347 347 346 346 346 347 348 349 350 351 352 351 351 351 351 349 348 348 347 346 345 345 348 349 347 345 346 348 350 351 352 351 351 354 357 356 354 357 0 0 359 359 357 357 356 355 355 356 357 357 356 357 357 358 358
166 167 170 171 173 175 177 180 183 186 188 189 191 194 198 206 218 228 237 250 263 281 296 308 320 331 338 342 342 342 341 341 343 344 345 345 345 345 346 347 348 349 350 351 351 352 351 351 350 349 348 346 346 345 345 347 348 346 344 345 347 350 350 350 350 350 351 356 358 355 355 359 360 359 359 358 357 356 355 356 357 356 356 355 355 356 356 357
168 169 171 173 175 177 179 182 186 188 191 193 197 202 209 219 230 238 247 258 271 284 295 307 317 325 331 336 337 338 338 339 341 342 342 343 344 344 345 345 346 347 348 350 351 352 351 351 351 349 347 346 345 346 345 345 345 345 344 345 347 349 349 349 350 350 350 354 358 357 354 357 359 359 360 359 357 356 356 356 356 355 354 354 354 355 356 357
168 169 172 174 177 179 182 186 189 192 195 198 203 210 219 230 239 248 258 267 278 288 298 307 315 321 326 329 332 334 336 337 339 339 340 341 343 343 343 344 345 346 347 349 350 350 351 351 350 348 347 346 345 346 345 344 343 344 346 346 346 346 348 349 349 349 350 351 357 358 353 354 358 359 360 360 357 357 357 356 356 354 354 354 353 354 355 356
167 169 173 176 179 183 187 191 193 196 200 202 208 217 229 242 250 259 269 278 286 293 301 308 313 318 322 325 329 331 333 335 336 337 339 341 341 342 342 343 343 344 346 348 349 349 350 350 349 348 348 347 346 345 344 342 342 344 347 346 344 345 347 350 350 349 349 350 354 358 354 353 356 358 359 360 358 358 358 357 355 354 354 354 354 354 354 355
166 169 173 176 181 185 188 192 195 200 204 209 218 231 244 254 262 269 277 284 290 296 303 307 312 315 319 322 326 328 331 333 334 335 338 339 340 340 341 341 342 343 345 346 347 348 348 348 349 348 347 347 346 345 343 342 343 344 345 346 345 345 346 349 351 350 349 349 351 356 357 353 354 357 358 358 358 358 358 357 355 354 354 354 354 353 353 354
165 169 173 179 184 187 191 196 201 206 213 221 233 245 255 263 272 279 284 288 292 296 301 305 309 312 316 319 322 326 329 330 332 333 335 337 338 339 340 341 342 343 344 345 346 346 346 347 348 348 347 346 346 345 344 343 344 344 345 346 346 345 345 347 351 351 350 349 349 354 357 353 352 355 356 357 357 357 357 356 355 354 355 355 354 352 352 353
167 170 176 183 188 193 198 204 210 217 225 233 241 251 262 272 281 288 293 295 297 299 301 304 307 310 314 317 320 323 326 328 329 331 333 335 336 337 338 340 341 342 343 344 345 345 345 345 346 347 348 346 345 345 344 343 344 346 346 346 346 345 344 346 349 352 352 350 348 351 355 353 352 354 355 356 356 355 356 356 354 355 355 354 353 352 351 352
171 174 181 188 194 200 205 210 218 225 231 238 246 260 272 282 288 292 295 298 300 302 303 304 306 309 312 315 318 321 323 324 327 329 331 333 334 336 337 339 340 341 342 343 343 343 344 343 344 346 347 347 344 344 345 344 344 346 347 347 346 344 344 345 347 351 353 352 348 350 354 353 351 353 354 354 355 354 354 355 355 355 355 354 353 352 351 351
176 180 188 195 201 207 212 218 224 228 236 251 266 278 284 288 290 292 294 296 298 301 303 304 306 309 311 313 316 318 320 322 324 327 328 331 333 334 336 337 338 339 340 342 342 342 343 342 342 344 345 346 345 344 345 345 345 346 347 347 345 343 343 343 345 349 353 354 349 349 354 355 351 352 353 352 354 353 353 354 355 355 355 354 353 352 350 350
182 189 198 204 208 216 220 226 232 240 254 269 280 286 289 290 290 291 293 294 297 299 301 303 305 307 309 312 314 316 318 320 322 324 326 329 331 333 334 335 336 338 339 340 341 341 342 342 342 342 344 346 345 344 345 345 345 344 345 346 345 344 343 343 344 348 352 354 351 348 353 357 353 351 352 351 352 353 352 353 354 354 353 352 352 352 351 350
188 199 208 212 219 226 229 236 245 256 268 277 283 286 288 289 289 291 292 293 295 297 299 301 303 306 308 310 312 314 317 318 320 323 325 327 329 331 333 334 335 336 337 338 340 341 342 342 342 341 342 345 346 344 344 344 345 344 344 346 346 345 344 343 344 348 351 354 354 350 351 357 356 353 352 351 351 352 352 353 354 353 352 351 352 352 351 350
196 206 215 221 228 236 240 248 258 268 276 281 283 286 287 288 289 290 292 293 294 296 298 300 302 304 307 309 311 314 316 317 319 321 323 325 327 329 331 332 333 334 335 336 338 339 340 342 343 342 341 344 345 344 343 343 344 344 344 345 347 346 345 344 345 349 351 353 355 353 352 355 357 356 353 352 352 352 352 353 353 352 351 351 351 352 352 351
205 214 223 229 236 245 251 260 268 275 280 284 285 287 288 289 289 290 292 294 295 296 298 300 302 304 306 308 311 313 315 317 318 320 321 323 325 327 329 330 331 332 333 334 336 337 339 340 342 342 340 341 343 343 343 343 343 342 343 344 346 347 346 345 346 349 351 352 354 356 354 354 357 358 355 353 353 353 353 352 352 351 351 351 351 351 351 351
216 224 231 237 245 254 261 269 275 279 282 285 287 288 289 290 290 292 294 295 296 297 299 300 302 304 306 308 310 312 314 315 317 318 320 322 323 325 326 328 329 330 331 333 333 335 337 337 340 342 340 340 342 343 343 342 341 341 342 343 346 348 347 345 346 348 351 352 353 355 356 355 356 358 357 355 355 354 353 352 351 351 350 350 350 350 351 350
226 234 240 246 253 261 268 273 278 282 285 287 288 289 290 291 292 294 296 297 298 299 300 301 303 305 306 307 309 310 312 314 315 317 319 320 321 323 324 325 327 328 329 331 331 333 335 335 337 339 340 339 340 342 341 341 341 341 342 343 346 349 348 345 345 347 349 351 352 353 355 355 355 357 357 357 356 355 354 353 352 351 350 349 349 350 350 349
236 243 249 255 261 266 271 276 280 285 287 289 290 290 292 293 294 297 299 300 301 302 302 303 304 305 306 307 308 309 310 311 313 314 316 318 319 321 322 323 325 326 327 328 330 330 332 334 334 336 339 338 338 340 341 341 343 342 341 343 346 349 349 345 344 347 348 350 352 352 353 354 354 355 356 357 357 356 355 354 353 352 351 349 349 349 349 349
248 254 258 265 269 271 274 277 280 284 287 289 290 291 293 295 297 299 301 303 303 304 305 306 307 307 307 307 307 308 309 310 311 312 314 316 317 319 320 321 323 324 325 326 328 329 329 331 332 333 336 337 337 340 342 342 342 340 340 344 346 348 349 346 344 347 349 350 352 352 352 353 353 353 355 356 356 356 356 354 353 353 353 351 349 349 348 348
255 260 263 269 272 273 276 279 280 283 286 288 290 291 292 294 296 299 301 302 303 304 306 307 307 307 307 307 307 308 309 310 310 311 313 314 316 317 318 320 321 322 324 324 326 327 328 329 331 331 333 336 337 339 341 341 339 340 342 344 344 344 346 347 345 347 349 350 351 352 351 351 352 352 353 355 355 355 355 354 353 354 354 352 350 349 349 348
Height
5799 5801 5803 5805 5807 5808 5810 5812 5813 5815 5817 5819 5821 5822 5823 5824 5825 5826 5827 5827 5828 5828 5828 5829 5829 5829 5829 5829 5829 5829 5829 5828 5829 5829 5830 5829 5828 5828 5827 5826 5826 5825 5825 5824 5823 5822 5821 5820 5818 5817 5815 5814 5812 5810 5808 5806 5804 5803 5801 5799 5797 5796 5794 5792 5790 5787 5785 5782 5779 5776 5772 5768 5765 5761 5757 5750 5744 5740 5737 5734 5730 5726 5720 5713 5705 5697 5691 5684
5799 5801 5803 5805 5807 5809 5811 5812 5814 5816 5818 5819 5821 5823 5824 5824 5825 5826 5827 5827 5828 5828 5828 5829 5829 5829 5829 5829 5829 5829 5829 5829 5830 5830 5830 5829 5828 5828 5827 5827 5826 5826 5825 5824 5823 5822 5821 5819 5817 5816 5814 5812 5810 5809 5807 5805 5803 5801 5799 5798 5795 5794 5792 5790 5787 5785 5782 5780 5776 5773 5769 5765 5761 5757 5752 5745 5737 5732 5727 5721 5717 5715 5710 5702 5695 5688 5681 5675
5799 5801 5803 5805 5807 5809 5811 5812 5814 5817 5818 5820 5821 5823 5824 5825 5825 5826 5827 5827 5828 5828 5829 5829 5830 5830 5830 5830 5830 5830 5830 5830 5831 5831 5830 5829 5829 5828 5827 5827 5826 5826 5825 5824 5822 5821 5819 5818 5816 5815 5813 5811 5809 5807 5806 5804 5802 5800 5798 5797 5794 5792 5790 5788 5785 5783 5780 5776 5773 5769 5766 5762 5757 5753 5749 5743 5735 5728 5722 5714 5706 5701 5696 5689 5682 5675 5668 5663
5799 5801 5803 5805 5807 5809 5811 5812 5815 5817 5818 5820 5822 5823 5824 5825 5826 5826 5827 5828 5828 5829 5829 5830 5830 5830 5830 5830 5831 5831 5831 5831 5831 5830 5830 5829 5829 5828 5828 5827 5826 5825 5824 5823 5821 5820 5819 5817 5816 5814 5812 5811 5809 5807 5805 5804 5801 5799 5797 5795 5793 5790 5788 5786 5783 5780 5777 5773 5770 5765 5762 5758 5753 5750 5745 5739 5734 5726 5719 5712 5704 5695 5688 5680 5672 5664 5657 5651
5799 5801 5803 5805 5808 5809 5811 5813 5815 5817 5819 5820 5822 5823 5825 5826 5826 5827 5827 5828 5829 5830 5830 5830 5831 5831 5831 5831 5831 5831 5831 5831 5831 5830 5830 5829 5829 5828 5828 5827 5826 5825 5823 5822 5821 5820 5819 5817 5815 5814 5812 5810 5808 5806 5803 5802 5800 5798 5796 5794 5791 5788 5786 5783 5781 5778 5775 5770 5767 5762 5759 5754 5748 5745 5740 5734 5729 5723 5716 5708 5700 5691 5681 5672 5663 5655 5648 5641
5799 5801 5803 5805 5808 5810 5812 5814 5816 5817 5819 5821 5822 5823 5825 5826 5826 5827 5828 5829 5830 5830 5830 5831 5831 5831 5831 5831 5832 5832 5832 5831 5831 5830 5830 5829 5829 5828 5828 5827 5826 5824 5823 5822 5821 5820 5818 5816 5815 5813 5811 5809 5806 5805 5802 5800 5798 5796 5794 5792 5790 5787 5784 5782 5778 5776 5773 5768 5764 5759 5755 5750 5743 5739 5735 5729 5723 5717 5710 5703 5694 5684 5674 5664 5654 5645 5638 5631
5799 5801 5803 5805 5808 5810 5812 5814 5816 5818 5819 5821 5822 5824 5825 5826 5827 5828 5829 5829 5830 5830 5831 5831 5831 5831 5832 5832 5832 5832 5832 5831 5831 5830 5830 5829 5829 5828 5827 5826 5825 5824 5824 5822 5821 5819 5817 5815 5814 5812 5810 5808 5806 5804 5802 5799 5797 5795 5793 5791 5789 5785 5782 5780 5776 5773 5770 5766 5761 5756 5753 5748 5740 5736 5731 5725 5720 5713 5706 5697 5688 5679 5669 5658 5647 5636 5628 5621
5800 5802 5804 5806 5807 5810 5812 5814 5816 5818 5819 5821 5823 5824 5825 5826 5827 5828 5829 5830 5831 5831 5831 5831 5831 5832 5832 5833 5833 5832 5832 5831 5831 5830 5830 5830 5829 5828 5827 5826 5826 5825 5824 5822 5820 5819 5817 5815 5813 5811 5809 5807 5805 5802 5800 5798 5796 5793 5791 5789 5787 5784 5780 5777 5773 5769 5766 5762 5757 5752 5749 5745 5739 5733 5728 5722 5716 5709 5702 5694 5684 5674 5663 5652 5639 5628 5620 5612
5800 5802 5804 5806 5807 5809 5812 5815 5817 5818 5819 5821 5823 5825 5826 5827 5828 5829 5830 5831 5831 5831 5831 5832 5832 5833 5833 5833 5833 5833 5832 5831 5831 5831 5830 5830 5829 5828 5828 5827 5826 5825 5824 5822 5820 5818 5816 5814 5812 5811 5808 5806 5804 5801 5799 5797 5794 5792 5789 5786 5784 5782 5778 5774 5771 5766 5762 5759 5755 5749 5745 5741 5735 5730 5724 5718 5711 5704 5697 5689 5680 5669 5658 5646 5634 5622 5612 5604
5801 5802 5804 5806 5807 5810 5813 5815 5817 5818 5820 5822 5823 5825 5826 5827 5828 5830 5831 5831 5831 5831 5832 5832 5833 5833 5834 5833 5833 5833 5832 5832 5832 5831 5831 5830 5829 5828 5828 5827 5826 5825 5823 5821 5819 5817 5815 5813 5812 5810 5807 5805 5803 5800 5798 5796 5793 5790 5787 5785 5782 5779 5776 5772 5769 5764 5759 5756 5751 5746 5742 5736 5730 5725 5719 5712 5706 5699 5692 5684 5675 5665 5653 5641 5629 5617 5606 5597
5801 5802 5804 5806 5808 5811 5813 5815 5816 5818 5820 5822 5824 5825 5826 5828 5829 5830 5831 5831 5832 5832 5832 5833 5834 5834 5834 5833 5833 5833 5833 5832 5832 5831 5831 5830 5829 5829 5828 5827 5826 5824 5822 5820 5818 5817 5814 5812 5811 5809 5807 5805 5802 5799 5797 5794 5791 5788 5786 5783 5779 5776 5774 5770 5767 5762 5757 5753 5748 5742 5738 5733 5726 5720 5714 5708 5702 5695 5688 5680 5671 5661 5649 5637 5624 5612 5600 5590
5801 5802 5804 5807 5809 5811 5813 5814 5816 5818 5821 5823 5824 5826 5827 5828 5830 5830 5831 5832 5832 5832 5833 5834 5835 5835 5834 5833 5834 5834 5833 5833 5832 5831 5831 5830 5829 5829 5828 5827 5825 5823 5821 5820 5818 5816 5814 5812 5810 5808 5806 5804 5801 5798 5795 5792 5789 5787 5783 5779 5776 5773 5771 5768 5763 5759 5754 5750 5746 5740 5734 5729 5722 5716 5710 5705 5698 5691 5684 5676 5665 5654 5643 5632 5621 5609 5597 5586
5800 5802 5804 5807 5809 5810 5812 5814 5817 5819 5822 5824 5825 5827 5828 5829 5830 5831 5832 5832 5833 5833 5834 5835 5835 5835 5834 5834 5834 5834 5833 5833 5832 5831 5831 5830 5830 5829 5828 5826 5824 5823 5821 5819 5817 5815 5813 5811 5808 5806 5804 5802 5799 5795 5793 5791 5788 5784 5781 5778 5775 5771 5768 5764 5760 5756 5752 5747 5742 5737 5732 5726 5720 5714 5708 5702 5695 5688 5679 5669 5657 5647 5637 5626 5615 5605 5595 5584
5800 5801 5804 5806 5808 5810 5812 5815 5818 5821 5823 5825 5826 5827 5828 5829 5830 5831 5832 5833 5833 5834 5835 5835 5835 5835 5835 5835 5835 5834 5834 5833 5832 5832 5831 5830 5829 5828 5827 5825 5824 5822 5820 5818 5816 5815 5812 5809 5807 5805 5802 5799 5797 5795 5792 5790 5787 5784 5781 5777 5773 5769 5765 5762 5758 5754 5749 5744 5739 5733 5728 5723 5718 5712 5705 5698 5690 5681 5670 5659 5649 5639 5628 5617 5606 5598 5590 5581
5801 5802 5804 5806 5808 5811 5814 5816 5819 5821 5824 5826 5827 5828 5829 5830 5831 5832 5833 5833 5834 5835 5835 5835 5835 5835 5836 5836 5835 5834 5834 5833 5832 5832 5831 5830 5829 5828 5826 5825 5823 5821 5819 5818 5816 5814 5811 5808 5806 5803 5800 5797 5795 5794 5791 5788 5785 5782 5779 5775 5770 5766 5763 5759 5756 5751 5746 5740 5736 5730 5725 5719 5714 5708 5700 5691 5682 5672 5661 5652 5642 5632 5620 5608 5598 5589 5580 5573
5801 5802 5804 5807 5810 5813 5815 5817 5820 5822 5824 5826 5827 5829 5829 5830 5832 5832 5833 5834 5835 5836 5836 5836 5836 5836 5836 5836 5835 5834 5834 5833 5833 5832 5831 5830 5829 5827 5826 5824 5822 5821 5819 5817 5815 5813 5811 5808 5806 5803 5799 5796 5793 5791 5789 5786 5783 5780 5776 5773 5768 5764 5760 5756 5751 5748 5743 5737 5733 5727 5721 5715 5709 5701 5692 5683 5675 5665 5656 5647 5638 5626 5614 5604 5594 5583 5574 5566
5801 5803 5806 5809 5812 5814 5816 5818 5820 5822 5825 5827 5828 5829 5830 5831 5832 5833 5834 5835 5836 5836 5836 5836 5836 5836 5837 5836 5835 5834 5834 5833 5833 5832 5831 5830 5828 5827 5825 5824 5822 5821 5819 5817 5815 5812 5810 5807 5804 5801 5798 5796 5794 5791 5787 5784 5781 5777 5774 5771 5767 5761 5756 5753 5748 5744 5739 5734 5729 5724 5717 5712 5704 5695 5687 5678 5668 5660 5652 5644 5633 5621 5611 5602 5592 5581 5571 5563
5802 5805 5808 5811 5813 5815 5817 5819 5821 5823 5825 5827 5828 5829 5830 5831 5832 5833 5834 5835 5836 5836 5836 5837 5837 5837 5836 5835 5835 5834 5834 5833 5832 5831 5830 5829 5828 5827 5825 5823 5822 5820 5818 5816 5813 5810 5807 5805 5802 5799 5798 5797 5794 5790 5785 5781 5777 5774 5771 5768 5764 5759 5753 5750 5745 5740 5735 5729 5723 5718 5714 5708 5699 5690 5683 5673 5664 5656 5649 5639 5627 5617 5608 5599 5589 5579 5569 5561
5803 5807 5809 5812 5814 5816 5818 5820 5822 5824 5826 5827 5828 5830 5831 5832 5833 5834 5835 5835 5836 5836 5837 5837 5837 5837 5836 5836 5835 5835 5834 5833 5832 5831 5830 5829 5828 5826 5824 5823 5821 5819 5817 5814 5811 5808 5806 5803 5801 5799 5798 5795 5791 5787 5782 5778 5775 5772 5768 5764 5760 5757 5752 5747 5742 5737 5732 5726 5718 5714 5710 5703 5694 5687 5679 5669 5662 5654 5644 5634 5624 5615 5607 5597 5587 5577 5568 5559
5805 5808 5811 5813 5816 5818 5819 5822 5824 5825 5826 5827 5828 5830 5831 5832 5833 5834 5835 5836 5836 5837 5837 5837 5837 5837 5836 5836 5835 5835 5834 5833 5832 5831 5830 5829 5827 5825 5823 5822 5819 5817 5814 5812 5809 5807 5805 5803 5801 5799 5796 5791 5787 5784 5780 5777 5774 5770 5766 5761 5758 5755 5750 5744 5740 5735 5729 5723 5718 5713 5707 5700 5692 5684 5675 5667 5659 5650 5640 5631 5622 5614 5605 5596 5586 5577 5569 5561
5807 5809 5812 5814 5816 5819 5821 5823 5825 5826 5827 5828 5829 5830 5831 5833 5834 5835 5836 5836 5837 5837 5837 5838 5837 5837 5837 5836 5835 5834 5833 5833 5832 5831 5830 5828 5826 5824 5822 5820 5818 5815 5813 5811 5809 5807 5804 5802 5800 5797 5793 5789 5786 5783 5779 5776 5772 5768 5765 5761 5757 5752 5748 5742 5737 5732 5726 5721 5717 5711 5704 5698 5690 5680 5672 5664 5655 5646 5637 5628 5620 5612 5604 5594 5587 5580 5570 5559
5808 5810 5813 5815 5818 5820 5822 5824 5825 5826 5827 5828 5830 5831 5832 5833 5835 5836 5836 5837 5837 5837 5838 5838 5838 5837 5837 5836 5835 5834 5834 5833 5832 5830 5829 5827 5825 5824 5822 5819 5817 5815 5813 5810 5808 5806 5803 5801 5798 5794 5790 5787 5785 5782 5778 5774 5770 5767 5764 5760 5755 5749 5744 5740 5735 5730 5725 5720 5715 5708 5700 5694 5686 5676 5668 5661 5652 5644 5635 5626 5619 5611 5603 5595 5589 5579 5565 5554
5810 5812 5815 5817 5819 5821 5823 5825 5826 5827 5828 5829 5830 5831 5833 5834 5835 5836 5837 5837 5837 5838 5838 5838 5838 5837 5837 5836 5835 5834 5833 5832 5831 5830 5828 5827 5825 5823 5821 5819 5817 5814 5811 5808 5806 5803 5800 5798 5795 5791 5788 5786 5783 5780 5777 5773 5769 5765 5761 5758 5753 5747 5741 5737 5732 5728 5723 5718 5712 5705 5698 5690 5681 5673 5665 5659 5651 5642 5634 5627 5620 5611 5604 5596 5586 5573 5562 5553
5812 5814 5816 5818 5820 5822 5823 5825 5826 5827 5829 5830 5831 5832 5833 5834 5836 5837 5838 5838 5838 5838 5838 5838 5838 5837 5837 5836 5835 5834 5833 5832 5831 5829 5828 5827 5825 5823 5821 5819 5816 5813 5811 5808 5805 5802 5799 5796 5792 5789 5787 5784 5781 5778 5775 5772 5768 5763 5759 5754 5749 5744 5739 5733 5729 5725 5720 5714 5707 5701 5694 5685 5677 5671 5664 5657 5649 5642 5635 5628 5621 5613 5604 5593 5580 5569 5561 5552
5813 5815 5817 5819 5821 5823 5824 5826 5827 5828 5829 5830 5832 5833 5834 5835 5836 5837 5838 5839 5838 5838 5838 5838 5837 5837 5836 5836 5835 5834 5832 5831 5830 5829 5828 5826 5824 5822 5820 5818 5815 5813 5810 5807 5804 5800 5797 5793 5790 5787 5784 5781 5779 5776 5773 5770 5765 5761 5756 5751 5746 5742 5737 5732 5726 5721 5716 5710 5703 5696 5688 5680 5675 5670 5662 5656 5650 5643 5635 5627 5620 5611 5600 5587 5575 5567 5560 5552
5814 5816 5818 5820 5822 5823 5825 5826 5828 5829 5830 5831 5832 5833 5835 5836 5837 5838 5839 5839 5838 5838 5838 5838 5837 5837 5836 5835 5834 5833 5832 5831 5830 5829 5827 5825 5823 5821 5819 5816 5814 5811 5808 5805 5802 5798 5795 5791 5789 5786 5783 5780 5776 5773 5770 5767 5763 5759 5754 5749 5745 5741 5736 5730 5723 5717 5711 5706 5700 5692 5685 5678 5672 5667 5661 5655 5648 5640 5633 5626 5617 5604 5591 5582 5575 5568 5560 5554
5815 5817 5819 5821 5822 5824 5825 5827 5828 5830 5831 5832 5833 5834 5835 5836 5837 5838 5839 5839 5839 5838 5838 5838 5837 5837 5836 5835 5834 5833 5832 5831 5830 5828 5826 5824 5823 5820 5818 5815 5812 5809 5806 5803 5800 5796 5793 5790 5787 5784 5781 5778 5774 5771 5767 5764 5761 5757 5753 5749 5744 5739 5734 5728 5722 5715 5708 5703 5698 5690 5682 5677 5671 5665 5660 5653 5645 5638 5630 5621 5609 5598 5589 5583 5577 5569 5561 5553
5816 5818 5820 5821 5823 5825 5826 5828 5829 5830 5831 5832 5833 5835 5836 5837 5838 5838 5839 5839 5839 5838 5838 5838 5837 5837 5836 5835 5834 5833 5832 5830 5829 5827 5825 5823 5821 5819 5817 5814 5810 5808 5804 5801 5798 5795 5792 5789 5786 5783 5780 5776 5773 5769 5764 5761 5758 5755 5751 5747 5741 5736 5731 5727 5722 5714 5706 5700 5695 5688 5682 5677 5672 5666 5658 5649 5640 5632 5624 5613 5604 5598 5592 5585 5578 5570 5562 5552
5817 5818 5820 5822 5824 5826 5827 5828 5830 5831 5832 5833 5834 5835 5836 5837 5838 5839 5839 5839 5839 5839 5838 5838 5837 5837 5836 5835 5833 5832 5831 5830 5828 5826 5824 5822 5820 5818 5815 5812 5810 5807 5804 5801 5798 5795 5792 5788 5784 5780 5778 5775 5771 5767 5762 5759 5756 5752 5749 5744 5739 5734 5730 5725 5719 5712 5704 5696 5691 5687 5682 5676 5670 5662 5653 5644 5637 5629 5620 5612 5606 5600 5593 5585 5578 5571 5562 5551
5817 5819 5821 5823 5825 5827 5828 5829 5830 5831 5833 5834 5835 5836 5837 5838 5838 5839 5839 5839 5839 5839 5838 5838 5837 5836 5835 5834 5833 5832 5831 5829 5827 5825 5823 5821 5819 5816 5814 5811 5810 5808 5805 5802 5798 5794 5790 5787 5783 5779 5775 5772 5768 5765 5761 5757 5753 5749 5745 5741 5737 5733 5728 5722 5716 5710 5703 5696 5691 5688 5681 5673 5665 5658 5650 5643 5637 5630 5622 5616 5610 5602 5595 5587 5578 5569 5558 5548
5818 5820 5822 5824 5826 5827 5829 5830 5831 5832 5833 5835 5836 5836 5837 5838 5839 5839 5839 5839 5839 5839 5838 5838 5837 5836 5835 5834 5833 5831 5830 5828 5826 5824 5822 5819 5817 5815 5813 5811 5809 5807 5804 5800 5796 5792 5789 5785 5781 5778 5773 5769 5766 5763 5759 5754 5750 5745 5741 5738 5735 5730 5724 5719 5714 5709 5703 5697 5691 5686 5679 5671 5663 5655 5650 5644 5637 5630 5623 5617 5610 5602 5595 5587 5578 5568 5558 5548
5819 5821 5823 5825 5827 5828 5830 5831 5832 5833 5834 5835 5836 5837 5838 5838 5839 5839 5839 5839 5839 5839 5838 5838 5837 5836 5835 5834 5832 5830 5829 5827 5825 5823 5821 5819 5817 5815 5813 5810 5807 5803 5800 5796 5794 5791 5787 5783 5779 5776 5772 5767 5764 5760 5756 5752 5747 5743 5740 5736 5732 5726 5721 5716 5711 5707 5703 5697 5689 5683 5678 5671 5662 5655 5649 5643 5637 5630 5622 5614 5607 5601 5594 5585 5575 5566 5557 5549
5821 5823 5824 5826 5828 5829 5830 5831 5832 5834 5835 5836 5837 5837 5838 5839 5839 5839 5839 5839 5839 5838 5838 5837 5837 5836 5835 5833 5831 5830 5828 5827 5825 5823 5821 5818 5816 5813 5811 5808 5804 5801 5798 5794 5791 5788 5785 5781 5777 5773 5769 5764 5760 5756 5753 5749 5745 5741 5737 5733 5727 5721 5716 5711 5707 5705 5703 5697 5688 5681 5675 5668 5663 5657 5649 5642 5635 5627 5620 5613 5606 5598 5588 5579 5571 5562 5555 5548
5822 5824 5825 5827 5828 5830 5831 5832 5833 5834 5835 5836 5837 5838 5839 5839 5839 5839 5839 5839 5838 5838 5838 5837 5836 5835 5834 5832 5831 5830 5828 5826 5824 5822 5820 5817 5815 5812 5809 5806 5803 5800 5796 5793 5790 5786 5782 5779 5775 5770 5766 5762 5758 5753 5750 5746 5742 5738 5734 5730 5725 5719 5713 5708 5703 5699 5697 5694 5686 5678 5672 5666 5660 5654 5646 5638 5632 5625 5618 5611 5602 5592 5584 5576 5568 5560 5553 5547
5823 5825 5826 5828 5829 5830 5831 5833 5834 5835 5836 5837 5838 5838 5839 5839 5839 5839 5839 5838 5838 5838 5837 5837 5836 5835 5833 5832 5831 5829 5827 5825 5823 5821 5819 5816 5814 5811 5808 5805 5802 5799 5795 5792 5789 5785 5781 5778 5773 5769 5765 5761 5757 5753 5748 5743 5740 5736 5733 5729 5724 5719 5713 5708 5703 5697 5692 5689 5683 5674 5667 5662 5656 5650 5644 5638 5631 5623 5616 5607 5597 5589 5582 5574 5567 5560 5553 5545
5824 5826 5827 5828 5830 5831 5832 5833 5834 5835 5836 5837 5838 5839 5839 5839 5839 5839 5838 5838 5838 5837 5836 5836 5835 5834 5833 5831 5830 5828 5826 5824 5822 5820 5818 5815 5812 5809 5806 5803 5800 5797 5794 5791 5787 5784 5780 5776 5772 5768 5765 5760 5756 5752 5747 5742 5739 5736 5731 5726 5721 5717 5712 5707 5701 5695 5689 5684 5679 5671 5665 5661 5656 5650 5644 5635 5627 5620 5612 5603 5595 5586 5579 5573 5567 5560 5552 5543
5825 5826 5828 5829 5830 5832 5833 5834 5835 5836 5837 5838 5839 5839 5839 5839 5839 5839 5838 5838 5837 5836 5836 5835 5834 5833 5832 5830 5829 5827 5825 5823 5821 5819 5817 5814 5811 5808 5805 5802 5799 5796 5793 5789 5785 5782 5779 5775 5771 5768 5764 5759 5754 5750 5746 5742 5738 5733 5728 5723 5718 5715 5711 5704 5698 5692 5687 5682 5678 5672 5664 5658 5653 5646 5639 5631 5624 5617 5609 5601 5593 5587 5580 5574 5567 5558 5550 5542
5826 5827 5829 5830 5831 5832 5833 5834 5835 5836 5837 5838 5839 5839 5839 5839 5839 5838 5838 5837 5836 5836 5835 5834 5833 5832 5830 5829 5828 5826 5824 5822 5820 5818 5815 5812 5810 5807 5804 5801 5798 5794 5791 5787 5784 5780 5776 5773 5770 5766 5762 5757 5753 5749 5745 5741 5736 5731 5726 5721 5717 5712 5707 5702 5695 5688 5683 5678 5675 5671 5663 5654 5649 5643 5636 5630 5624 5617 5610 5602 5595 5588 5582 5574 5566 5558 5550 5543
5827 5828 5829 5831 5832 5833 5834 5835 5836 5837 5838 5838 5839 5839 5839 5839 5838 5838 5837 5836 5836 5835 5834 5833 5832 5831 5829 5828 5826 5824 5822 5820 5818 5816 5813 5811 5808 5805 5802 5799 5796 5792 5789 5785 5781 5778 5774 5771 5767 5763 5759 5755 5752 5747 5743 5739 5734 5729 5724 5720 5715 5709 5705 5700 5695 5687 5680 5673 5669 5667 5661 5652 5646 5640 5633 5628 5622 5615 5609 5602 5595 5588 5580 5572 5565 5557 5550 5542
5827 5829 5830 5832 5833 5833 5835 5836 5837 5837 5838 5838 5839 5839 5838 5838 5838 5837 5837 5836 5835 5834 5833 5832 5831 5829 5828 5826 5825 5823 5821 5819 5816 5814 5811 5809 5806 5804 5801 5798 5794 5791 5787 5783 5780 5776 5773 5769 5766 5762 5757 5753 5749 5746 5741 5736 5732 5727 5721 5717 5712 5707 5702 5698 5694 5688 5680 5672 5666 5662 5657 5650 5643 5638 5631 5625 5618 5611 5605 5599 5592 5585 5578 5570 5562 5555 5549 5541
5828 5830 5831 5832 5833 5834 5835 5836 5837 5838 5838 5838 5838 5838 5838 5838 5837 5837 5836 5835 5834 5833 5832 5831 5829 5828 5827 5825 5823 5821 5819 5817 5815 5812 5810 5807 5805 5802 5799 5796 5793 5789 5786 5782 5778 5775 5771 5767 5764 5760 5756 5751 5747 5744 5740 5735 5730 5725 5719 5714 5709 5704 5699 5695 5691 5686 5679 5671 5663 5658 5653 5647 5640 5635 5629 5622 5615 5609 5602 5596 5590 5583 5575 5568 5561 5554 5547 5539
5829 5831 5832 5833 5834 5835 5836 5836 5837 5837 5838 5838 5838 5838 5837 5837 5836 5836 5835 5834 5833 5832 5831 5829 5828 5827 5825 5823 5822 5820 5818 5816 5813 5811 5808 5806 5803 5800 5797 5794 5791 5787 5784 5780 5776 5773 5769 5765 5761 5758 5754 5750 5745 5741 5737 5732 5727 5723 5718 5712 5706 5702 5697 5692 5688 5685 5680 5672 5663 5657 5653 5646 5638 5632 5626 5619 5613 5607 5600 5594 5588 5582 5574 5567 5560 5553 5545 5539
5830 5831 5832 5833 5834 5835 5836 5837 5837 5837 5838 5838 5838 5837 5837 5836 5835 5835 5834 5833 5832 5831 5829 5828 5827 5825 5824 5822 5820 5818 5816 5814 5812 5809 5807 5804 5801 5799 5796 5792 5789 5786 5782 5779 5775 5770 5767 5762 5758 5755 5752 5748 5743 5738 5734 5729 5724 5720 5717 5712 5706 5701 5696 5691 5687 5682 5678 5671 5663 5656 5652 5645 5636 5628 5623 5617 5611 5605 5599 5593 5586 5579 5573 5565 5558 5552 5545 5538
5831 5832 5833 5834 5835 5835 5836 5837 5837 5837 5837 5837 5837 5836 5836 5835 5834 5833 5832 5831 5830 5829 5828 5827 5825 5824 5822 5820 5819 5817 5815 5812 5810 5808 5805 5803 5800 5797 5794 5791 5787 5784 5780 5777 5773 5769 5764 5760 5755 5750 5747 5744 5740 5734 5730 5727 5722 5718 5715 5711 5706 5700 5694 5689 5685 5680 5674 5670 5663 5654 5649 5645 5636 5629 5623 5617 5611 5605 5598 5591 5584 5577 5570 5564 5557 5551 5544 5537
5831 5832 5833 5834 5835 5835 5836 5836 5837 5837 5836 5836 5836 5835 5834 5834 5833 5832 5831 5830 5829 5828 5826 5825 5824 5822 5820 5819 5817 5815 5813 5811 5808 5806 5803 5801 5798 5795 5792 5789 5786 5782 5779 5775 5771 5767 5763 5759 5753 5748 5743 5739 5735 5731 5727 5723 5720 5716 5712 5709 5704 5698 5692 5686 5681 5676 5671 5667 5662 5653 5646 5644 5639 5631 5623 5616 5609 5604 5597 5590 5583 5576 5569 5563 5557 5550 5543 5536
5831 5832 5833 5834 5835 5835 5836 5836 5836 5836 5835 5835 5834 5834 5833 5832 5831 5830 5829 5828 5827 5826 5825 5823 5822 5820 5819 5817 5815 5813 5811 5809 5806 5804 5801 5799 5796 5793 5790 5787 5784 5780 5777 5773 5770 5766 5762 5758 5754 5748 5743 5739 5735 5731 5726 5722 5718 5714 5710 5706 5702 5697 5691 5684 5678 5673 5668 5664 5660 5652 5642 5638 5635 5628 5621 5614 5608 5602 5596 5589 5582 5575 5569 5563 5556 5549 5541 5534
5831 5832 5833 5834 5834 5835 5835 5835 5835 5835 5834 5834 5833 5832 5831 5830 5829 5829 5827 5826 5825 5824 5823 5822 5820 5819 5817 5815 5813 5811 5809 5807 5804 5802 5799 5797 5794 5791 5788 5785 5781 5778 5775 5771 5767 5764 5760 5756 5753 5749 5743 5738 5735 5731 5726 5721 5716 5713 5709 5705 5701 5696 5690 5683 5677 5672 5667 5661 5657 5652 5642 5634 5630 5625 5618 5612 5606 5599 5593 5587 5580 5574 5568 5561 5554 5547 5540 5532
5832 5832 5833 5833 5834 5834 5834 5834 5834 5833 5833 5832 5831 5831 5830 5829 5828 5827 5826 5825 5824 5822 5821 5820 5818 5817 5815 5813 5811 5809 5807 5804 5802 5800 5797 5794 5792 5789 5786 5783 5779 5776 5772 5769 5765 5761 5758 5754 5751 5748 5742 5737 5733 5729 5725 5721 5716 5711 5707 5703 5699 5695 5689 5682 5676 5671 5666 5659 5653 5649 5643 5634 5628 5624 5618 5610 5604 5597 5590 5584 5578 5572 5565 5558 5552 5545 5538 5531
5832 5832 5833 5833 5833 5833 5833 5833 5833 5832 5832 5831 5830 5829 5828 5827 5826 5825 5824 5823 5822 5821 5819 5818 5816 5815 5813 5811 5809 5807 5804 5802 5800 5797 5795 5792 5789 5787 5783 5780 5777 5773 5770 5766 5762 5758 5755 5751 5748 5745 5742 5736 5732 5729 5725 5720 5715 5709 5704 5700 5696 5692 5686 5679 5675 5670 5665 5659 5652 5646 5641 5635 5627 5621 5616 5609 5602 5595 5588 5582 5576 5569 5563 5556 5549 5543 5536 5529
5831 5832 5832 5832 5832 5832 5832 5832 5832 5831 5830 5829 5828 5828 5827 5826 5824 5823 5822 5821 5820 5819 5817 5816 5814 5812 5810 5808 5806 5804 5802 5800 5797 5795 5792 5790 5787 5784 5781 5778 5774 5771 5767 5764 5760 5755 5752 5749 5744 5742 5739 5735 5730 5727 5722 5717 5712 5707 5702 5698 5693 5689 5684 5677 5673 5669 5663 5657 5651 5644 5639 5634 5627 5620 5614 5607 5601 5594 5587 5580 5574 5567 5561 5554 5547 5540 5534 5527
5831 5832 5832 5832 5832 5831 5831 5831 5830 5830 5829 5828 5827 5826 5825 5824 5823 5822 5820 5819 5818 5816 5815 5813 5812 5810 5808 5806 5804 5802 5799 5797 5795 5792 5789 5787 5784 5781 5778 5775 5771 5768 5764 5761 5757 5753 5749 5746 5742 5738 5736 5732 5727 5723 5719 5714 5710 5706 5701 5695 5690 5686 5683 5677 5671 5666 5659 5653 5649 5642 5636 5631 5625 5619 5612 5606 5599 5593 5586 5579 5573 5566 5559 5552 5545 5538 5531 5525
5831 5831 5831 5831 5831 5830 5830 5829 5829 5828 5827 5827 5826 5825 5823 5822 5821 5820 5818 5817 5816 5814 5813 5811 5809 5808 5806 5804 5801 5799 5797 5794 5792 5789 5787 5784 5781 5778 5775 5772 5768 5765 5762 5758 5754 5751 5746 5742 5738 5734 5731 5729 5724 5720 5717 5712 5708 5704 5698 5692 5688 5685 5682 5677 5669 5663 5658 5652 5646 5641 5635 5630 5624 5617 5611 5605 5599 5592 5586 5579 5572 5565 5558 5551 5544 5536 5530 5523